Погода в Шапе

Вьетнам     22°20′11″N   103°50′36″E
темп.,
°C
ветер,
м/с
пор.,
м/с
влажн.,
%
обл.,
%
осадки,
мм/ч
давл.,
гПа
погр.,
м
4 марта, чт
чт401:00+13всв229316 0.1 101652
04:00+12в129529 0.0 101642
07:00+12юв129727 0.1 101684
10:00+18ююз238157 0.5 1017375
13:00+22юз355736 0.9 10121326
16:00+19ю117249 0.4 100972
19:00+16всв228457 0.9 101134
22:00+16вюв128569 0.2 101427
5 марта, пт
пт501:00+15юв128861 0.6 101355
04:00+14ююв129611 0.7 101247
07:00+14ю129713 1.8 101480
10:00+20ююз237410 1.0 1014613
13:00+24зюз28445 1.3 10112252
16:00+24юз3103857 0.2 10082457
19:00+17ю015328 0.2 101023
22:00+16всв12473 0.0 101325
6 марта, сб
сб601:00+15всв12592 0.0 101326
04:00+13св12681 0.0 101325
07:00+14всв11733 0.0 101523
10:00+22ююз22483 0.0 1016699
13:00+25юз37272 0.0 10122599
16:00+24зюз282518 0.0 10102823
19:00+17св224811 0.1 101232
22:00+16всв22671 0.1 101534
7 марта, вс
вс701:00+15всв22852 0.1 101569
04:00+15всв239613 0.1 1015132
07:00+15всв229215 0.3 1016138
10:00+21юв126618 1.1 1018765
13:00+23ю235616 3.2 10141231
16:00+19сз027613 4.4 1012303
19:00+15всв339224 7.6 1014124
22:00+15всв249425 0.0 1017175
8 марта, пн
пн801:00+14в229527 0.0 101693
04:00+14в129650 0.0 101676
07:00+14в129362 0.1 1017120
10:00+18ю128075 0.1 1019493
13:00+23ююз235859 0.4 10141252
16:00+22ююз22591 0.6 10121127
19:00+16всв23900 1.3 101489
22:00+16всв239512 0.3 1017137